Showing default

COSMOS 2489, 39484

Orbit data source: Space-Track

COSMOS 2489, 39484 is a payload satellite owned by VVKO (CIS) in LEO that was launched on Wed, 25 Dec 2013 UTC via an ROKOT launch vehicle from the Plesetsk Missile And Space Complex (PKMTR). Payload-class satellites include a variety of spacecraft equipped with specific instruments for various scientific and technological missions. These include communications satellites like Starlink; space stations such as the ISS; scientific satellites like the Hubble; Earth observation satellites from companies like Planet Labs, Umbra, and HawkEye 360; GPS; miniature CubeSats for education and research; and military/defense satellites.

Loading next visibility...
Identifier
39484, 2013-076B
Orbit
LEO
Country
Flag of CISCIS
Related business
Manufacturer
Resehetnev ISS
Mission
Operational Civil Communications
Bus & Motor
STRELA-3M, Unknown motor
Mass
280 kg wet, 280 kg dry
Launch date (UTC)
2013-12-25 (12 years ago)
Launch vehicle
ROKOT
Launch site
Plesetsk Missile And Space Complex (PKMTR)
Object type
Payload
Rocket body
Debris
Shape & HBR
Cyl + 1 Ant, 3.5 m
Radar Cross Section
1.583 m², Large (>1 m²)

Expand to show TLE details & history
Last TLE update: 12 hours ago

TLE from 12 hours ago
0 COSMOS 2489
1 39484U 13076B   26100.31445999  .00000151  00000-0  10210-2 0  9991
2 39484  82.4899 212.3298 0020487 241.1205 118.7819 12.42878743557517
Epoch: 2026-04-10T07:32Z
TLE epoch observation values (Epoch: 2026-04-10T07:32:49.343Z)
Latitude
-0.00001°
Longitude
-99.42569°
Altitude
1,504.915 km
Speed
7.109 km/s
True Right ascension
14h 09m 19s
True Declination
0° 00' 00"
Sunlit
Object was in full shadow at epoch
Visualization orbit readout
Latitude
Unknown
Longitude
Unknown
Altitude
Unknown
Speed
Unknown
Apparent Right ascension
Unknown
Apparent Declination
Unknown
Sunlit
N/A
Visualization observer readout
Local Sidereal Time
01:50:36
Azimuth
Unknown
Elevation
Unknown
Doppler factor
Unknown
Orbital elements
Apogee altitude
1,507.898 km
Perigee altitude
1,475.652 km
Semi-major axis
7,869.912 km
Eccentricity
0.00205
Inclination
82.4899°
RAAN
212.3298°
Arg. of periapsis
241.1205°
True anomaly
118.98741°
Mean anomaly
118.7819°
Eccentric anomaly
118.88468°
Mean motion
3.10877 °/min
Orbital period
115.8 mins
BSTAR
0.001021
Loading maneuver chart data...
Computing Atmospheric mass density...
Loading historical data...
Loading historical data...
Loading historical data...
Loading historical data...
Loading historical data...
Loading historical data...
Loading historical data...

Documentation

Showing up to 5 results
|